| time (UTC) | temp F | wind direction | speed knots | gust knots | rain 1hr in | rain 24hr in | rain mn in | humidity % | barometer mb |
| 20260906085007 | 54 | 40 | 0.0 | 1.7 | 0.00 | 0.02 | 0.00 | 87 | 1016.8 |
| 20260906084516 | 54 | 51 | 0.0 | 1.7 | 0.00 | 0.02 | 0.00 | 87 | 1016.8 |
| 20260906084013 | 54 | 37 | 0.0 | 1.7 | 0.00 | 0.02 | 0.00 | 87 | 1016.9 |
| 20260906083508 | 54 | 37 | 0.0 | 1.7 | 0.00 | 0.02 | 0.00 | 87 | 1016.8 |
| 20260906083032 | 54 | 37 | 0.0 | 1.7 | 0.00 | 0.02 | 0.00 | 87 | 1017.0 |
| 20260906082514 | 54 | 42 | 0.0 | 1.7 | 0.00 | 0.02 | 0.00 | 87 | 1017.0 |
| 20260906082014 | 54 | 281 | 0.0 | 1.7 | 0.00 | 0.02 | 0.00 | 87 | 1017.1 |
| 20260906081508 | 55 | 281 | 0.0 | 1.7 | 0.00 | 0.02 | 0.00 | 86 | 1017.1 |
| 20260906081004 | 55 | 281 | 0.0 | 0.9 | 0.00 | 0.02 | 0.00 | 86 | 1017.0 |
| 20260906080504 | 55 | 277 | 0.9 | 0.9 | 0.00 | 0.02 | 0.00 | 85 | 1017.0 |
| 20260906080022 | 55 | 327 | 0.9 | 1.7 | 0.00 | 0.02 | 0.00 | 85 | 1017.1 |
| 20260906075506 | 55 | 9 | 0.0 | 1.7 | 0.00 | 0.02 | 0.00 | 85 | 1017.1 |
| 20260906075005 | 55 | 11 | 0.0 | 1.7 | 0.00 | 0.02 | 0.00 | 85 | 1017.1 |
| 20260906074516 | 55 | 14 | 0.0 | 0.9 | 0.00 | 0.02 | 0.00 | 85 | 1017.0 |
| 20260906074006 | 55 | 350 | 0.0 | 1.7 | 0.00 | 0.02 | 0.00 | 84 | 1017.0 |
| 20260906073509 | 56 | 351 | 0.0 | 1.7 | 0.00 | 0.02 | 0.00 | 84 | 1016.9 |
| 20260906073021 | 56 | 319 | 0.0 | 1.7 | 0.00 | 0.02 | 0.00 | 84 | 1017.0 |
| 20260906072512 | 56 | 319 | 0.0 | 1.7 | 0.00 | 0.02 | 0.00 | 84 | 1017.0 |
| 20260906072011 | 56 | 281 | 0.0 | 1.7 | 0.00 | 0.02 | 0.00 | 84 | 1017.0 |
| 20260906071528 | 56 | 281 | 0.0 | 1.7 | 0.00 | 0.02 | 0.00 | 84 | 1017.0 |
| 20260906071015 | 56 | 281 | 0.0 | 1.7 | 0.00 | 0.02 | 0.00 | 84 | 1017.0 |
| 20260906070515 | 56 | 281 | 0.0 | 1.7 | 0.00 | 0.02 | 0.00 | 83 | 1017.0 |
| 20260906070005 | 56 | 281 | 0.0 | 1.7 | 0.00 | 0.02 | 0.00 | 83 | 1017.0 |
| 20260906065504 | 57 | 280 | 0.9 | 1.7 | 0.00 | 0.02 | 0.02 | 83 | 1017.2 |
| 20260906065006 | 57 | 146 | 0.0 | 0.0 | 0.00 | 0.02 | 0.02 | 82 | 1017.2 |
| 20260906064511 | 57 | 146 | 0.0 | 1.7 | 0.00 | 0.02 | 0.02 | 82 | 1017.2 |
| 20260906064009 | 57 | 146 | 0.0 | 1.7 | 0.00 | 0.02 | 0.02 | 82 | 1017.2 |
| 20260906063506 | 57 | 62 | 0.0 | 1.7 | 0.00 | 0.02 | 0.02 | 82 | 1017.2 |
| 20260906063018 | 57 | 62 | 0.0 | 1.7 | 0.00 | 0.02 | 0.02 | 82 | 1017.2 |
| 20260906062509 | 58 | 62 | 0.0 | 1.7 | 0.00 | 0.02 | 0.02 | 82 | 1017.3 |
| 20260906062010 | 58 | 29 | 0.0 | 1.7 | 0.00 | 0.02 | 0.02 | 81 | 1017.3 |
| 20260906061527 | 58 | 22 | 0.0 | 1.7 | 0.00 | 0.02 | 0.02 | 81 | 1017.3 |
| 20260906061012 | 58 | 23 | 0.0 | 1.7 | 0.00 | 0.02 | 0.02 | 80 | 1017.3 |
| 20260906060516 | 58 | 96 | 0.0 | 1.7 | 0.00 | 0.02 | 0.02 | 81 | 1017.2 |
| 20260906060029 | 59 | 98 | 0.0 | 1.7 | 0.00 | 0.02 | 0.02 | 80 | 1017.1 |
| 20260906055514 | 59 | 101 | 0.9 | 1.7 | 0.00 | 0.02 | 0.02 | 80 | 1017.1 |
| 20260906055017 | 60 | 84 | 0.0 | 1.7 | 0.00 | 0.02 | 0.02 | 79 | 1017.1 |
| 20260906054511 | 60 | 314 | 0.0 | 1.7 | 0.00 | 0.02 | 0.02 | 79 | 1017.1 |
| 20260906054004 | 60 | 28 | 0.9 | 3.5 | 0.00 | 0.02 | 0.02 | 79 | 1017.0 |
| 20260906053512 | 60 | 303 | 0.0 | 3.5 | 0.00 | 0.02 | 0.02 | 78 | 1016.8 |
| 20260906053015 | 60 | 222 | 0.0 | 3.5 | 0.00 | 0.02 | 0.02 | 78 | 1016.8 |
| 20260906052508 | 60 | 263 | 0.0 | 1.7 | 0.00 | 0.02 | 0.02 | 77 | 1016.8 |
| 20260906052010 | 61 | 231 | 0.0 | 0.9 | 0.00 | 0.02 | 0.02 | 76 | 1016.8 |
| 20260906051526 | 61 | 169 | 0.0 | 0.9 | 0.00 | 0.02 | 0.02 | 76 | 1017.0 |
| 20260906051011 | 61 | 83 | 0.9 | 0.9 | 0.00 | 0.02 | 0.02 | 76 | 1017.0 |
| 20260906050512 | 62 | 257 | 0.0 | 0.9 | 0.00 | 0.02 | 0.02 | 76 | 1017.0 |
| 20260906050027 | 62 | 257 | 0.0 | 1.7 | 0.00 | 0.02 | 0.02 | 75 | 1017.0 |
| 20260906045515 | 62 | 257 | 0.9 | 1.7 | 0.00 | 0.02 | 0.02 | 74 | 1017.2 |
| 20260906045014 | 62 | 42 | 0.0 | 1.7 | 0.00 | 0.02 | 0.02 | 75 | 1017.3 |
| 20260906044531 | 62 | 325 | 0.0 | 0.9 | 0.00 | 0.03 | 0.02 | 72 | 1017.3 |
| 20260906044020 | 63 | 5 | 0.0 | 0.9 | 0.00 | 0.03 | 0.02 | 73 | 1017.3 |
| 20260906043505 | 63 | 43 | 0.0 | 1.7 | 0.00 | 0.03 | 0.02 | 72 | 1017.4 |
| 20260906043027 | 63 | 44 | 0.0 | 1.7 | 0.00 | 0.03 | 0.02 | 71 | 1017.5 |
| 20260906042506 | 63 | 44 | 0.0 | 1.7 | 0.00 | 0.03 | 0.02 | 71 | 1017.5 |
| 20260906042006 | 63 | 47 | 0.0 | 0.9 | 0.00 | 0.03 | 0.02 | 70 | 1017.5 |
| 20260906041521 | 63 | 47 | 0.0 | 1.7 | 0.00 | 0.03 | 0.02 | 70 | 1017.5 |
| 20260906041011 | 64 | 46 | 0.0 | 1.7 | 0.00 | 0.03 | 0.02 | 70 | 1017.6 |
| 20260906040512 | 64 | 342 | 0.0 | 1.7 | 0.00 | 0.03 | 0.02 | 69 | 1017.5 |
| 20260906040028 | 64 | 312 | 0.0 | 1.7 | 0.00 | 0.03 | 0.02 | 68 | 1017.5 |
| 20260906035512 | 65 | 313 | 0.0 | 1.7 | 0.00 | 0.03 | 0.02 | 68 | 1017.5 |
| 20260906035013 | 65 | 300 | 0.9 | 2.6 | 0.00 | 0.03 | 0.02 | 67 | 1017.6 |
| 20260906034529 | 65 | 328 | 0.0 | 2.6 | 0.00 | 0.03 | 0.02 | 66 | 1017.6 |
| 20260906034015 | 65 | 282 | 0.0 | 1.7 | 0.00 | 0.03 | 0.02 | 66 | 1017.5 |
| 20260906033514 | 65 | 315 | 0.9 | 3.5 | 0.00 | 0.03 | 0.02 | 66 | 1017.6 |
| 20260906033030 | 66 | 329 | 0.9 | 3.5 | 0.00 | 0.03 | 0.02 | 65 | 1017.5 |
| 20260906032516 | 66 | 327 | 0.9 | 3.5 | 0.00 | 0.03 | 0.02 | 64 | 1017.4 |
| 20260906032008 | 66 | 327 | 0.9 | 1.7 | 0.00 | 0.03 | 0.02 | 63 | 1017.4 |
| 20260906031518 | 67 | 324 | 0.0 | 1.7 | 0.00 | 0.03 | 0.02 | 63 | 1017.3 |
| 20260906031008 | 67 | 349 | 0.0 | 1.7 | 0.00 | 0.03 | 0.02 | 63 | 1017.2 |
| 20260906030513 | 67 | 319 | 0.0 | 1.7 | 0.00 | 0.03 | 0.02 | 62 | 1017.3 |
| 20260906030024 | 67 | 293 | 0.9 | 2.6 | 0.00 | 0.03 | 0.02 | 61 | 1017.2 |
| 20260906025511 | 68 | 302 | 0.9 | 2.6 | 0.00 | 0.03 | 0.02 | 61 | 1017.2 |
| 20260906025014 | 68 | 290 | 0.0 | 3.5 | 0.00 | 0.03 | 0.02 | 61 | 1017.1 |
| 20260906024527 | 68 | 264 | 1.7 | 3.5 | 0.00 | 0.03 | 0.02 | 60 | 1017.1 |
| 20260906024015 | 68 | 276 | 1.7 | 2.6 | 0.00 | 0.03 | 0.02 | 60 | 1017.2 |
| 20260906023515 | 69 | 323 | 0.9 | 2.6 | 0.00 | 0.03 | 0.02 | 59 | 1017.2 |
| 20260906023044 | 69 | 308 | 0.9 | 2.6 | 0.00 | 0.04 | 0.02 | 60 | 1017.2 |
| 20260906022519 | 69 | 269 | 0.9 | 2.6 | 0.00 | 0.04 | 0.02 | 59 | 1017.2 |
| 20260906022021 | 69 | 251 | 0.0 | 4.3 | 0.00 | 0.04 | 0.02 | 58 | 1017.1 |
| 20260906021533 | 69 | 287 | 0.9 | 4.3 | 0.00 | 0.04 | 0.02 | 58 | 1017.1 |
| 20260906021020 | 70 | 272 | 1.7 | 3.5 | 0.00 | 0.04 | 0.02 | 58 | 1017.0 |
| 20260906020511 | 70 | 276 | 2.6 | 5.2 | 0.00 | 0.04 | 0.02 | 57 | 1017.0 |
| 20260906020022 | 70 | 280 | 1.7 | 5.2 | 0.00 | 0.04 | 0.02 | 57 | 1017.0 |
| 20260906015512 | 70 | 302 | 2.6 | 3.5 | 0.00 | 0.04 | 0.02 | 57 | 1016.9 |
| 20260906015013 | 70 | 308 | 0.9 | 2.6 | 0.00 | 0.04 | 0.02 | 56 | 1016.9 |
| 20260906014529 | 70 | 290 | 1.7 | 2.6 | 0.00 | 0.04 | 0.02 | 56 | 1016.9 |
| 20260906014013 | 70 | 279 | 1.7 | 2.6 | 0.00 | 0.04 | 0.02 | 56 | 1016.9 |
| 20260906013514 | 70 | 229 | 0.9 | 3.5 | 0.00 | 0.05 | 0.02 | 55 | 1016.9 |
| 20260906013041 | 71 | 253 | 0.9 | 3.5 | 0.00 | 0.05 | 0.02 | 56 | 1016.9 |
| 20260906012515 | 71 | 260 | 1.7 | 3.5 | 0.00 | 0.05 | 0.02 | 56 | 1016.9 |
| 20260906012017 | 71 | 231 | 1.7 | 4.3 | 0.00 | 0.05 | 0.02 | 56 | 1016.9 |
| 20260906011538 | 71 | 239 | 1.7 | 5.2 | 0.00 | 0.05 | 0.02 | 56 | 1016.8 |
| 20260906011017 | 71 | 199 | 2.6 | 5.2 | 0.00 | 0.05 | 0.02 | 55 | 1016.7 |
| 20260906010518 | 71 | 290 | 0.9 | 3.5 | 0.00 | 0.05 | 0.02 | 55 | 1016.6 |
| 20260906010040 | 71 | 185 | 1.7 | 4.3 | 0.00 | 0.05 | 0.02 | 55 | 1016.7 |
| 20260906005510 | 71 | 265 | 1.7 | 4.3 | 0.00 | 0.05 | 0.02 | 54 | 1016.6 |
| 20260906005012 | 71 | 171 | 0.9 | 5.2 | 0.00 | 0.05 | 0.02 | 52 | 1016.6 |
| 20260906004526 | 71 | 184 | 0.9 | 5.2 | 0.00 | 0.05 | 0.02 | 51 | 1016.7 |
| 20260906004016 | 71 | 175 | 0.9 | 3.5 | 0.00 | 0.05 | 0.02 | 51 | 1016.7 |
| 20260906003512 | 71 | 93 | 0.9 | 3.5 | 0.00 | 0.05 | 0.02 | 53 | 1016.7 |
| 20260906003032 | 71 | 352 | 1.7 | 3.5 | 0.00 | 0.05 | 0.02 | 53 | 1016.7 |
| 20260906002513 | 71 | 44 | 0.9 | 3.5 | 0.00 | 0.05 | 0.02 | 53 | 1016.7 |
| 20260906002014 | 71 | 22 | 1.7 | 3.5 | 0.00 | 0.05 | 0.02 | 54 | 1016.7 |
| 20260906001531 | 71 | 74 | 0.0 | 3.5 | 0.00 | 0.05 | 0.02 | 53 | 1016.7 |
| 20260906001018 | 71 | 144 | 1.7 | 3.5 | 0.00 | 0.05 | 0.02 | 53 | 1016.7 |
| 20260906000517 | 71 | 159 | 0.9 | 2.6 | 0.00 | 0.05 | 0.02 | 54 | 1016.6 |
| 20260906000047 | 71 | 114 | 0.9 | 5.2 | 0.00 | 0.05 | 0.02 | 54 | 1016.6 |
| 20260905235517 | 72 | 105 | 2.6 | 5.2 | 0.00 | 0.05 | 0.02 | 54 | 1016.7 |
| 20260905235016 | 71 | 115 | 1.7 | 3.5 | 0.00 | 0.05 | 0.02 | 54 | 1016.6 |
| 20260905234529 | 72 | 29 | 1.7 | 3.5 | 0.00 | 0.05 | 0.02 | 55 | 1016.7 |
| 20260905234012 | 72 | 98 | 0.0 | 4.3 | 0.00 | 0.05 | 0.02 | 58 | 1016.7 |
| 20260905233512 | 72 | 88 | 0.9 | 4.3 | 0.00 | 0.05 | 0.02 | 58 | 1016.8 |
| 20260905233030 | 71 | 13 | 2.6 | 4.3 | 0.00 | 0.05 | 0.02 | 1016.8 | |
| 20260905232514 | 71 | 31 | 0.0 | 2.6 | 0.00 | 0.05 | 0.02 | 1017.0 | |
| 20260905232014 | 71 | 321 | 1.7 | 2.6 | 0.00 | 0.05 | 0.02 | 1017.0 | |
| 20260905231530 | 71 | 9 | 1.7 | 2.6 | 0.00 | 0.05 | 0.02 | 1017.0 | |
| 20260905231018 | 71 | 352 | 0.9 | 1.7 | 0.00 | 0.05 | 0.02 | 1017.1 | |
| 20260905230517 | 71 | 173 | 0.0 | 3.5 | 0.00 | 0.05 | 0.02 | 1017.1 | |
| 20260905230035 | 71 | 98 | 1.7 | 3.5 | 0.00 | 0.05 | 0.02 | 59 | 1017.1 |
| 20260905225521 | 72 | 80 | 1.7 | 3.5 | 0.00 | 0.05 | 0.02 | 59 | 1017.2 |
| 20260905225019 | 72 | 360 | 1.7 | 5.2 | 0.00 | 0.05 | 0.02 | 59 | 1017.2 |
| 20260905224546 | 72 | 49 | 1.7 | 5.2 | 0.00 | 0.05 | 0.02 | 58 | 1017.3 |
| 20260905224018 | 72 | 167 | 0.9 | 5.2 | 0.00 | 0.05 | 0.02 | 58 | 1017.3 |
| 20260905223519 | 72 | 65 | 1.7 | 7.0 | 0.00 | 0.05 | 0.02 | 57 | 1017.2 |
| 20260905223029 | 72 | 67 | 2.6 | 7.0 | 0.00 | 0.05 | 0.02 | 57 | 1017.2 |
| 20260905222514 | 72 | 178 | 2.6 | 7.0 | 0.00 | 0.05 | 0.02 | 56 | 1017.1 |
| 20260905222013 | 73 | 171 | 0.9 | 5.2 | 0.00 | 0.05 | 0.02 | 57 | 1017.1 |
| 20260905221533 | 73 | 24 | 0.9 | 5.2 | 0.00 | 0.05 | 0.02 | 54 | 1017.1 |
| 20260905221016 | 73 | 207 | 1.7 | 6.1 | 0.00 | 0.05 | 0.02 | 55 | 1017.1 |
| 20260905220518 | 73 | 104 | 1.7 | 8.7 | 0.00 | 0.05 | 0.02 | 56 | 1017.2 |
| 20260905220031 | 73 | 66 | 4.3 | 8.7 | 0.00 | 0.05 | 0.02 | 55 | 1017.3 |
| 20260905215514 | 73 | 92 | 1.7 | 6.1 | 0.00 | 0.05 | 0.02 | 54 | 1017.4 |
| 20260905215023 | 74 | 130 | 1.7 | 6.1 | 0.00 | 0.05 | 0.02 | 53 | 1017.4 |
| 20260905214538 | 75 | 136 | 1.7 | 4.3 | 0.00 | 0.05 | 0.02 | 52 | 1017.4 |
| 20260905214019 | 75 | 161 | 0.9 | 4.3 | 0.00 | 0.05 | 0.02 | 52 | 1017.4 |
| 20260905213519 | 74 | 5 | 0.9 | 4.3 | 0.00 | 0.05 | 0.02 | 58 | 1017.4 |
| 20260905213032 | 73 | 147 | 1.7 | 4.3 | 0.00 | 0.05 | 0.02 | 54 | 1017.4 |
| 20260905212518 | 73 | 275 | 0.9 | 2.6 | 0.00 | 0.05 | 0.02 | 56 | 1017.5 |
| 20260905212014 | 72 | 219 | 1.7 | 2.6 | 0.00 | 0.05 | 0.02 | 56 | 1017.5 |
| 20260905211532 | 72 | 266 | 0.0 | 2.6 | 0.00 | 0.05 | 0.02 | 58 | 1017.6 |
| 20260905211016 | 71 | 91 | 0.9 | 3.5 | 0.00 | 0.05 | 0.02 | 58 | 1017.6 |
| 20260905210518 | 71 | 104 | 0.9 | 3.5 | 0.00 | 0.05 | 0.02 | 54 | 1017.6 |
| 20260905210031 | 71 | 89 | 0.0 | 2.6 | 0.00 | 0.05 | 0.02 | 56 | 1017.7 |
| 20260905205516 | 72 | 13 | 0.9 | 2.6 | 0.00 | 0.05 | 0.02 | 54 | 1017.7 |
| 20260905205018 | 72 | 205 | 0.9 | 4.3 | 0.00 | 0.05 | 0.02 | 54 | 1017.7 |
| 20260905204537 | 72 | 188 | 0.9 | 4.3 | 0.00 | 0.05 | 0.02 | 55 | 1017.8 |
| 20260905204017 | 71 | 198 | 0.0 | 5.2 | 0.00 | 0.05 | 0.02 | 55 | 1017.8 |
| 20260905203507 | 71 | 175 | 2.6 | 5.2 | 0.00 | 0.05 | 0.02 | 54 | 1017.9 |
| 20260905203011 | 71 | 132 | 0.9 | 4.3 | 0.00 | 0.05 | 0.02 | 58 | 1017.8 |
| 20260905202510 | 71 | 112 | 1.7 | 4.3 | 0.00 | 0.05 | 0.02 | 55 | 1017.9 |
| 20260905202003 | 71 | 136 | 0.9 | 2.6 | 0.00 | 0.05 | 0.02 | 58 | 1017.9 |
| 20260905201508 | 71 | 325 | 0.9 | 6.1 | 0.00 | 0.05 | 0.02 | 55 | 1017.9 |
| 20260905201001 | 71 | 67 | 1.7 | 6.1 | 0.00 | 0.05 | 0.02 | 57 | 1017.9 |
| 20260905200506 | 70 | 69 | 1.7 | 3.5 | 0.00 | 0.05 | 0.02 | 59 | 1017.9 |
| 20260905200015 | 70 | 306 | 0.9 | 5.2 | 0.00 | 0.05 | 0.02 | 59 | 1018.0 |
| 20260905195506 | 70 | 180 | 2.6 | 5.2 | 0.00 | 0.05 | 0.02 | 58 | 1018.0 |
| 20260905195010 | 69 | 198 | 0.9 | 3.5 | 0.00 | 0.05 | 0.02 | 59 | 1018.0 |
| 20260905194513 | 70 | 85 | 0.9 | 3.5 | 0.00 | 0.05 | 0.02 | 59 | 1018.1 |
| 20260905194007 | 69 | 341 | 0.9 | 3.5 | 0.00 | 0.05 | 0.02 | 69 | 1018.2 |
| 20260905193506 | 68 | 18 | 0.0 | 4.3 | 0.00 | 0.05 | 0.02 | 61 | 1018.2 |
| 20260905193014 | 68 | 167 | 1.7 | 4.3 | 0.00 | 0.05 | 0.02 | 61 | 1018.3 |
| 20260905192506 | 68 | 159 | 0.9 | 3.5 | 0.00 | 0.05 | 0.02 | 64 | 1018.3 |
| 20260905192009 | 67 | 86 | 0.9 | 2.6 | 0.00 | 0.05 | 0.02 | 63 | 1018.3 |
| 20260905191516 | 67 | 195 | 0.9 | 2.6 | 0.00 | 0.05 | 0.02 | 64 | 1018.3 |
| 20260905191008 | 67 | 173 | 1.7 | 3.5 | 0.00 | 0.05 | 0.02 | 65 | 1018.4 |
| 20260905190503 | 67 | 232 | 0.9 | 3.5 | 0.00 | 0.05 | 0.02 | 65 | 1018.3 |
| 20260905190006 | 67 | 128 | 0.0 | 2.6 | 0.00 | 0.05 | 0.02 | 68 | 1018.4 |
| 20260905185505 | 66 | 5 | 0.9 | 2.6 | 0.00 | 0.05 | 0.02 | 71 | 1018.4 |
| 20260905185005 | 66 | 133 | 0.9 | 2.6 | 0.00 | 0.05 | 0.02 | 73 | 1018.5 |
| 20260905184540 | 66 | 76 | 0.9 | 3.5 | 0.00 | 0.05 | 0.02 | 73 | 1018.6 |
| 20260905184008 | 65 | 144 | 0.0 | 3.5 | 0.00 | 0.05 | 0.02 | 75 | 1018.6 |
| 20260905183508 | 65 | 106 | 0.9 | 3.5 | 0.00 | 0.05 | 0.02 | 73 | 1018.7 |
| 20260905183036 | 64 | 73 | 0.9 | 2.6 | 0.00 | 0.05 | 0.02 | 76 | 1018.7 |
| 20260905182506 | 63 | 303 | 0.0 | 1.7 | 0.01 | 0.05 | 0.02 | 78 | 1018.8 |
| 20260905182008 | 62 | 263 | 0.0 | 1.7 | 0.01 | 0.05 | 0.02 | 80 | 1018.9 |
| 20260905181521 | 62 | 91 | 0.9 | 2.6 | 0.01 | 0.05 | 0.02 | 81 | 1019.0 |
| 20260905181011 | 61 | 92 | 0.9 | 2.6 | 0.01 | 0.05 | 0.02 | 81 | 1019.1 |
| 20260905180512 | 61 | 209 | 0.0 | 1.7 | 0.01 | 0.05 | 0.02 | 82 | 1019.1 |
| 20260905180021 | 60 | 115 | 0.0 | 1.7 | 0.01 | 0.05 | 0.02 | 86 | 1019.1 |
| 20260905175503 | 59 | 152 | 0.9 | 1.7 | 0.01 | 0.05 | 0.02 | 86 | 1019.1 |
| 20260905175004 | 58 | 174 | 0.9 | 5.2 | 0.01 | 0.05 | 0.02 | 88 | 1019.2 |
| 20260905174512 | 58 | 168 | 0.9 | 5.2 | 0.01 | 0.05 | 0.02 | 89 | 1019.2 |
| 20260905174006 | 57 | 12 | 0.9 | 4.3 | 0.01 | 0.05 | 0.02 | 92 | 1019.2 |
| 20260905173507 | 56 | 103 | 0.0 | 1.7 | 0.01 | 0.05 | 0.02 | 93 | 1019.2 |
| 20260905173016 | 56 | 110 | 0.9 | 2.6 | 0.01 | 0.05 | 0.02 | 93 | 1019.2 |
| 20260905172510 | 55 | 5 | 0.9 | 2.6 | 0.00 | 0.04 | 0.01 | 93 | 1019.2 |
| 20260905172010 | 55 | 22 | 0.9 | 2.6 | 0.00 | 0.04 | 0.01 | 93 | 1019.2 |
| 20260905171533 | 55 | 46 | 0.0 | 1.7 | 0.00 | 0.04 | 0.01 | 93 | 1019.1 |
| 20260905171008 | 55 | 178 | 0.0 | 1.7 | 0.00 | 0.04 | 0.01 | 93 | 1019.1 |
| 20260905170510 | 54 | 75 | 0.0 | 1.7 | 0.00 | 0.04 | 0.01 | 93 | 1019.1 |
| 20260905170020 | 54 | 136 | 0.9 | 3.5 | 0.00 | 0.04 | 0.01 | 93 | 1019.1 |
| 20260905165511 | 54 | 35 | 0.9 | 5.2 | 0.00 | 0.04 | 0.01 | 93 | 1019.1 |
| 20260905165011 | 54 | 90 | 1.7 | 5.2 | 0.00 | 0.04 | 0.01 | 93 | 1018.8 |
| 20260905164525 | 54 | 108 | 0.9 | 3.5 | 0.00 | 0.04 | 0.01 | 93 | 1018.8 |
| 20260905164004 | 54 | 102 | 0.9 | 2.6 | 0.00 | 0.04 | 0.01 | 93 | 1018.8 |
| 20260905163504 | 54 | 110 | 0.9 | 3.5 | 0.00 | 0.04 | 0.01 | 93 | 1018.7 |
| 20260905163014 | 54 | 99 | 0.9 | 3.5 | 0.00 | 0.04 | 0.01 | 93 | 1018.6 |
| 20260905162506 | 53 | 94 | 0.9 | 2.6 | 0.00 | 0.04 | 0.01 | 93 | 1018.6 |
| 20260905162009 | 53 | 148 | 0.0 | 2.6 | 0.00 | 0.04 | 0.01 | 93 | 1018.6 |
| 20260905161524 | 53 | 118 | 0.9 | 2.6 | 0.00 | 0.04 | 0.01 | 94 | 1018.6 |
| 20260905161009 | 53 | 113 | 0.0 | 2.6 | 0.00 | 0.04 | 0.01 | 94 | 1018.6 |
| 20260905160512 | 53 | 105 | 0.0 | 1.7 | 0.00 | 0.04 | 0.01 | 94 | 1018.7 |
| 20260905160028 | 52 | 88 | 0.9 | 1.7 | 0.00 | 0.04 | 0.01 | 94 | 1018.7 |
| 20260905155513 | 52 | 111 | 0.0 | 2.6 | 0.00 | 0.04 | 0.01 | 94 | 1018.7 |
| 20260905155010 | 52 | 82 | 0.9 | 2.6 | 0.00 | 0.04 | 0.01 | 94 | 1018.7 |
| 20260905154533 | 51 | 130 | 0.9 | 2.6 | 0.00 | 0.04 | 0.01 | 94 | 1018.6 |
| 20260905154012 | 51 | 91 | 0.9 | 2.6 | 0.00 | 0.04 | 0.01 | 94 | 1018.6 |
| 20260905153513 | 51 | 100 | 0.9 | 2.6 | 0.00 | 0.04 | 0.01 | 94 | 1018.6 |
| 20260905153025 | 51 | 123 | 0.9 | 1.7 | 0.00 | 0.04 | 0.01 | 94 | 1018.5 |
| 20260905152507 | 51 | 103 | 0.0 | 1.7 | 0.00 | 0.04 | 0.01 | 94 | 1018.6 |
| 20260905152010 | 51 | 80 | 0.0 | 1.7 | 0.00 | 0.04 | 0.01 | 94 | 1018.5 |
| 20260905151524 | 51 | 80 | 0.0 | 1.7 | 0.00 | 0.04 | 0.01 | 94 | 1018.4 |
| 20260905151012 | 51 | 90 | 0.9 | 1.7 | 0.00 | 0.04 | 0.01 | 94 | 1018.4 |
| 20260905150508 | 51 | 88 | 0.0 | 1.7 | 0.00 | 0.04 | 0.01 | 94 | 1018.3 |
| 20260905150026 | 51 | 92 | 0.0 | 1.7 | 0.00 | 0.04 | 0.01 | 94 | 1018.4 |
| 20260905145511 | 51 | 180 | 0.0 | 1.7 | 0.00 | 0.04 | 0.01 | 94 | 1018.4 |
| 20260905145014 | 51 | 99 | 0.0 | 1.7 | 0.00 | 0.04 | 0.01 | 94 | 1018.4 |
| 20260905144533 | 51 | 98 | 0.0 | 1.7 | 0.00 | 0.04 | 0.01 | 94 | 1018.3 |
| 20260905144013 | 51 | 118 | 0.0 | 1.7 | 0.00 | 0.04 | 0.01 | 94 | 1018.3 |
| 20260905143513 | 51 | 126 | 0.0 | 1.7 | 0.00 | 0.04 | 0.01 | 94 | 1018.3 |
| 20260905143027 | 51 | 76 | 0.0 | 0.9 | 0.00 | 0.04 | 0.01 | 94 | 1018.2 |
| 20260905142513 | 51 | 76 | 0.0 | 0.9 | 0.00 | 0.04 | 0.01 | 94 | 1018.2 |
| 20260905142014 | 51 | 76 | 0.0 | 0.0 | 0.00 | 0.04 | 0.01 | 94 | 1018.2 |
| 20260905141513 | 51 | 76 | 0.0 | 1.7 | 0.00 | 0.04 | 0.01 | 94 | 1018.2 |
| 20260905141006 | 51 | 76 | 0.0 | 1.7 | 0.00 | 0.04 | 0.01 | 94 | 1018.2 |
| 20260905140511 | 51 | 46 | 0.0 | 1.7 | 0.00 | 0.04 | 0.01 | 94 | 1018.1 |
| 20260905140025 | 51 | 42 | 0.0 | 0.0 | 0.00 | 0.04 | 0.01 | 94 | 1018.1 |
| 20260905135512 | 51 | 42 | 0.0 | 0.9 | 0.00 | 0.04 | 0.01 | 94 | 1018.0 |
| 20260905135013 | 51 | 42 | 0.0 | 1.7 | 0.00 | 0.04 | 0.01 | 93 | 1018.0 |
| 20260905134526 | 51 | 32 | 0.0 | 1.7 | 0.00 | 0.04 | 0.01 | 94 | 1018.0 |
| 20260905134012 | 51 | 19 | 0.0 | 1.7 | 0.00 | 0.04 | 0.01 | 93 | 1018.0 |
| 20260905133512 | 51 | 5 | 0.0 | 1.7 | 0.00 | 0.04 | 0.01 | 93 | 1018.0 |
| 20260905133039 | 51 | 5 | 0.0 | 1.7 | 0.00 | 0.04 | 0.01 | 93 | 1018.0 |
| 20260905132515 | 51 | 5 | 0.0 | 1.7 | 0.00 | 0.04 | 0.01 | 93 | 1018.0 |
| 20260905132015 | 51 | 5 | 0.0 | 1.7 | 0.00 | 0.04 | 0.01 | 93 | 1018.0 |
| 20260905131535 | 51 | 5 | 0.0 | 1.7 | 0.00 | 0.04 | 0.01 | 93 | 1018.0 |
| 20260905131012 | 51 | 5 | 0.0 | 1.7 | 0.00 | 0.04 | 0.01 | 93 | 1018.0 |
| 20260905130512 | 51 | 5 | 0.0 | 1.7 | 0.00 | 0.04 | 0.01 | 93 | 1018.0 |
| 20260905130018 | 51 | 5 | 0.0 | 1.7 | 0.00 | 0.04 | 0.01 | 93 | 1018.0 |
| 20260905125508 | 51 | 5 | 0.0 | 1.7 | 0.00 | 0.04 | 0.01 | 93 | 1018.0 |
| 20260905125012 | 51 | 352 | 0.0 | 1.7 | 0.00 | 0.04 | 0.01 | 93 | 1017.9 |
| 20260905124528 | 51 | 326 | 0.0 | 1.7 | 0.00 | 0.04 | 0.01 | 93 | 1017.9 |
| 20260905124011 | 51 | 326 | 0.0 | 1.7 | 0.00 | 0.04 | 0.01 | 93 | 1017.9 |
| 20260905123512 | 51 | 326 | 0.0 | 1.7 | 0.00 | 0.04 | 0.01 | 93 | 1017.8 |
| 20260905123030 | 51 | 326 | 0.0 | 1.7 | 0.00 | 0.04 | 0.01 | 93 | 1017.8 |
| 20260905122516 | 51 | 330 | 0.0 | 1.7 | 0.00 | 0.04 | 0.01 | 93 | 1017.8 |
| 20260905122015 | 51 | 83 | 0.0 | 1.7 | 0.00 | 0.04 | 0.01 | 93 | 1017.8 |
| 20260905121527 | 51 | 83 | 0.0 | 1.7 | 0.00 | 0.04 | 0.01 | 93 | 1017.8 |
| 20260905121016 | 51 | 83 | 0.0 | 1.7 | 0.00 | 0.04 | 0.01 | 93 | 1017.7 |
| 20260905120517 | 51 | 83 | 0.0 | 1.7 | 0.00 | 0.04 | 0.01 | 93 | 1017.8 |
| 20260905120031 | 51 | 83 | 0.0 | 0.0 | 0.00 | 0.04 | 0.01 | 93 | 1017.8 |
| 20260905115515 | 51 | 83 | 0.0 | 1.7 | 0.00 | 0.04 | 0.01 | 93 | 1017.7 |
| 20260905115015 | 51 | 83 | 0.0 | 1.7 | 0.00 | 0.04 | 0.01 | 93 | 1017.8 |
| 20260905114525 | 51 | 81 | 0.0 | 1.7 | 0.00 | 0.04 | 0.01 | 93 | 1017.8 |
| 20260905114012 | 51 | 82 | 0.0 | 1.7 | 0.00 | 0.04 | 0.01 | 93 | 1017.7 |
| 20260905113513 | 52 | 80 | 0.0 | 1.7 | 0.00 | 0.04 | 0.01 | 93 | 1017.8 |
| 20260905113004 | 52 | 81 | 0.0 | 1.7 | 0.00 | 0.04 | 0.01 | 93 | 1017.8 |
| 20260905112504 | 52 | 53 | 0.0 | 1.7 | 0.00 | 0.04 | 0.01 | 93 | 1017.8 |
| 20260905112005 | 52 | 26 | 0.0 | 1.7 | 0.00 | 0.04 | 0.01 | 93 | 1017.7 |
| 20260905111511 | 52 | 26 | 0.0 | 1.7 | 0.00 | 0.04 | 0.01 | 92 | 1017.7 |
| 20260905111006 | 52 | 26 | 0.0 | 1.7 | 0.00 | 0.04 | 0.01 | 92 | 1017.7 |
| 20260905110504 | 52 | 26 | 0.0 | 1.7 | 0.00 | 0.04 | 0.01 | 92 | 1017.7 |
| 20260905110030 | 52 | 26 | 0.0 | 1.7 | 0.00 | 0.04 | 0.01 | 92 | 1017.6 |
| 20260905105505 | 52 | 26 | 0.0 | 1.7 | 0.00 | 0.04 | 0.01 | 92 | 1017.6 |
| 20260905105006 | 52 | 22 | 0.0 | 1.7 | 0.00 | 0.04 | 0.01 | 93 | 1017.7 |
| 20260905104521 | 53 | 22 | 0.0 | 1.7 | 0.00 | 0.04 | 0.01 | 93 | 1017.7 |
| 20260905104008 | 53 | 22 | 0.0 | 1.7 | 0.00 | 0.04 | 0.01 | 93 | 1017.7 |
| 20260905103512 | 53 | 10 | 0.0 | 1.7 | 0.00 | 0.04 | 0.01 | 93 | 1017.7 |
| 20260905103026 | 53 | 10 | 0.0 | 1.7 | 0.00 | 0.04 | 0.01 | 93 | 1017.7 |
| 20260905102518 | 53 | 10 | 0.0 | 1.7 | 0.00 | 0.04 | 0.01 | 93 | 1017.8 |
| 20260905102016 | 53 | 10 | 0.0 | 0.0 | 0.00 | 0.04 | 0.01 | 93 | 1017.8 |
| 20260905101504 | 53 | 10 | 0.0 | 1.7 | 0.00 | 0.04 | 0.01 | 93 | 1017.8 |
| 20260905101003 | 53 | 10 | 0.0 | 1.7 | 0.01 | 0.04 | 0.01 | 93 | 1017.8 |
| 20260905100503 | 53 | 10 | 0.0 | 0.9 | 0.01 | 0.04 | 0.01 | 93 | 1017.7 |
| 20260905100008 | 53 | 40 | 0.0 | 0.0 | 0.01 | 0.04 | 0.01 | 93 | 1017.7 |
| 20260905095506 | 53 | 40 | 0.0 | 0.0 | 0.01 | 0.04 | 0.01 | 93 | 1017.7 |
| 20260905095009 | 53 | 40 | 0.0 | 0.9 | 0.01 | 0.04 | 0.01 | 93 | 1017.6 |
| 20260905094519 | 53 | 40 | 0.0 | 1.7 | 0.01 | 0.04 | 0.01 | 93 | 1017.6 |
| 20260905094010 | 53 | 81 | 0.0 | 1.7 | 0.01 | 0.04 | 0.01 | 93 | 1017.5 |
| 20260905093510 | 53 | 33 | 0.0 | 1.7 | 0.01 | 0.04 | 0.01 | 93 | 1017.5 |
| 20260905093023 | 53 | 46 | 0.0 | 0.9 | 0.01 | 0.04 | 0.01 | 93 | 1017.4 |
| 20260905092514 | 53 | 91 | 0.0 | 0.0 | 0.01 | 0.04 | 0.01 | 93 | 1017.4 |
| 20260905092014 | 53 | 91 | 0.0 | 1.7 | 0.01 | 0.04 | 0.01 | 93 | 1017.4 |
| 20260905091528 | 53 | 91 | 0.0 | 1.7 | 0.01 | 0.05 | 0.01 | 93 | 1017.3 |
| 20260905091016 | 53 | 55 | 0.0 | 0.0 | 0.00 | 0.04 | 0.00 | 93 | 1017.3 |
| 20260905090515 | 53 | 55 | 0.0 | 0.0 | 0.00 | 0.04 | 0.00 | 92 | 1017.3 |
| 20260905090016 | 53 | 55 | 0.0 | 0.0 | 0.00 | 0.04 | 0.00 | 92 | 1017.2 |
| 20260905085503 | 53 | 55 | 0.0 | 1.7 | 0.00 | 0.04 | 0.00 | 92 | 1017.2 |